Total_Precipitation_Accumulation
0.01 0.04 0.18 0.35 0.55 0.98 1.01 0.57 0.37 0.34 0.35 0.36 0.47 0.47 0.38 0.37 0.50 0.82 0.29 0.06 0.03 0.01 0.01 0.05 0.06 0.05 0.06 0.07 0.09 0.11 0.11 0.12 0.12 0.11 0.09 0.08 0.07 0.06 0.06 0.07 0.08 0.12 0.13 0.13 0.14 0.12 0.13 0.15 0.16
0.00 0.04 0.16 0.35 0.79 1.35 1.07 0.51 0.34 0.37 0.38 0.38 0.42 0.50 0.52 0.36 0.23 0.19 0.12 0.06 0.04 0.02 0.02 0.04 0.07 0.06 0.06 0.07 0.08 0.10 0.10 0.11 0.11 0.10 0.09 0.09 0.08 0.09 0.10 0.09 0.11 0.14 0.15 0.14 0.12 0.11 0.11 0.13 0.16
0.01 0.04 0.12 0.31 0.67 0.96 0.75 0.34 0.29 0.29 0.40 0.46 0.47 0.47 0.50 0.32 0.20 0.12 0.11 0.08 0.05 0.03 0.04 0.08 0.09 0.07 0.06 0.06 0.08 0.09 0.10 0.10 0.10 0.10 0.10 0.10 0.10 0.11 0.12 0.12 0.13 0.14 0.15 0.14 0.12 0.10 0.11 0.12 0.15
0.01 0.05 0.13 0.28 0.35 0.37 0.34 0.24 0.23 0.23 0.33 0.42 0.54 0.53 0.42 0.27 0.24 0.20 0.13 0.11 0.06 0.05 0.06 0.08 0.10 0.08 0.07 0.06 0.08 0.09 0.10 0.10 0.11 0.11 0.12 0.12 0.12 0.13 0.12 0.12 0.12 0.14 0.15 0.16 0.13 0.09 0.10 0.13 0.15
0.01 0.06 0.18 0.26 0.21 0.25 0.25 0.23 0.22 0.20 0.30 0.43 0.48 0.56 0.52 0.35 0.26 0.19 0.13 0.15 0.10 0.07 0.06 0.07 0.10 0.09 0.08 0.07 0.09 0.09 0.09 0.10 0.10 0.11 0.11 0.12 0.13 0.14 0.14 0.13 0.13 0.15 0.15 0.16 0.12 0.10 0.10 0.12 0.15
0.01 0.06 0.15 0.17 0.13 0.13 0.17 0.16 0.19 0.22 0.32 0.52 0.48 0.55 0.68 0.51 0.36 0.27 0.17 0.17 0.15 0.11 0.07 0.08 0.13 0.14 0.11 0.11 0.12 0.11 0.10 0.11 0.12 0.12 0.10 0.11 0.11 0.13 0.15 0.15 0.15 0.17 0.16 0.16 0.14 0.12 0.13 0.12 0.17
0.01 0.03 0.08 0.12 0.08 0.08 0.10 0.13 0.18 0.21 0.37 0.63 0.52 0.67 0.93 0.86 0.51 0.40 0.38 0.29 0.25 0.23 0.20 0.14 0.14 0.16 0.17 0.17 0.16 0.15 0.13 0.13 0.13 0.14 0.12 0.11 0.12 0.13 0.16 0.20 0.22 0.22 0.20 0.19 0.15 0.12 0.12 0.13 0.18
0.00 0.01 0.03 0.05 0.05 0.05 0.06 0.09 0.14 0.28 0.36 0.51 0.45 0.69 1.17 1.04 0.64 0.59 0.65 0.58 0.62 0.56 0.42 0.25 0.21 0.22 0.18 0.16 0.17 0.20 0.17 0.16 0.16 0.15 0.14 0.14 0.16 0.19 0.22 0.24 0.29 0.31 0.30 0.27 0.22 0.18 0.16 0.18 0.22
0.00 0.01 0.03 0.03 0.03 0.03 0.04 0.07 0.10 0.19 0.35 0.57 0.62 0.68 0.91 0.81 0.77 0.83 0.91 0.96 0.97 1.03 0.83 0.43 0.32 0.29 0.26 0.21 0.21 0.26 0.26 0.23 0.22 0.23 0.25 0.28 0.33 0.39 0.50 0.49 0.54 0.53 0.50 0.47 0.43 0.40 0.37 0.34 0.28
0.00 0.01 0.02 0.01 0.02 0.02 0.03 0.05 0.13 0.24 0.51 0.81 0.86 0.88 1.05 0.99 0.80 0.83 0.88 1.01 1.11 1.19 1.05 0.69 0.54 0.41 0.33 0.29 0.37 0.47 0.45 0.47 0.42 0.50 0.55 0.66 0.82 0.77 0.64 0.78 0.98 0.99 1.00 0.92 0.90 0.89 0.72 0.54 0.50
0.00 0.00 0.00 0.01 0.01 0.01 0.02 0.05 0.14 0.31 0.64 1.09 1.39 1.45 1.31 1.18 1.08 1.02 0.97 1.14 1.34 1.34 1.16 0.89 0.78 0.69 0.55 0.59 0.55 0.61 0.71 0.83 0.70 0.68 0.79 1.07 1.05 0.83 0.79 0.91 1.12 1.33 1.33 1.23 1.44 1.50 1.11 1.05 1.27
0.00 0.00 0.00 0.01 0.00 0.01 0.04 0.07 0.15 0.33 0.62 0.91 1.18 1.50 1.64 1.48 1.47 1.40 1.35 1.59 1.76 1.63 1.44 1.21 1.00 0.87 0.80 0.77 0.73 0.74 0.74 0.90 0.88 1.00 1.04 1.20 1.37 1.28 1.25 1.32 1.35 1.47 1.59 1.83 1.88 1.92 1.72 1.67 1.62
0.00 0.00 0.00 0.01 0.01 0.01 0.04 0.13 0.23 0.36 0.49 0.71 0.90 1.07 1.35 1.68 1.96 1.98 2.01 2.41 2.28 2.11 1.96 1.76 1.42 1.33 1.21 1.20 1.18 1.04 1.05 1.15 1.23 1.35 1.35 1.35 1.54 1.53 1.59 1.60 1.65 1.55 1.66 1.88 2.08 2.03 2.11 2.18 2.00
0.00 0.00 0.01 0.01 0.01 0.02 0.07 0.19 0.24 0.37 0.47 0.63 0.87 1.07 1.60 2.17 2.32 2.51 2.79 3.01 2.92 2.73 2.72 2.51 2.16 2.09 1.93 1.71 1.55 1.49 1.41 1.49 1.51 1.56 1.53 1.60 1.79 1.90 1.84 1.68 1.70 1.65 1.70 1.81 2.00 2.10 2.39 2.35 2.25
0.00 0.02 0.03 0.03 0.03 0.04 0.08 0.24 0.30 0.41 0.51 0.73 1.09 1.28 1.73 2.05 2.29 2.38 2.75 2.95 2.93 2.92 3.08 3.07 2.93 2.90 2.72 2.44 2.09 1.88 1.87 1.78 1.85 1.90 1.86 1.94 2.00 2.09 2.01 1.84 1.70 1.77 1.82 1.91 1.94 2.08 2.36 2.30 2.18
0.02 0.05 0.08 0.07 0.07 0.08 0.15 0.47 0.42 0.52 0.74 1.03 1.29 1.44 1.68 1.81 2.14 2.25 2.55 2.87 3.02 3.10 3.28 3.49 3.51 3.48 3.27 2.97 2.64 2.39 2.24 2.15 2.11 2.07 2.03 1.98 2.08 2.10 2.06 1.86 1.68 1.86 1.87 1.92 2.05 2.14 2.27 2.38 2.39
0.04 0.06 0.13 0.17 0.15 0.11 0.25 0.65 0.67 0.77 0.93 1.07 1.19 1.42 1.58 1.57 1.90 2.28 2.56 3.01 3.26 3.41 3.79 4.16 4.23 4.14 3.78 3.35 3.04 2.92 2.75 2.51 2.30 2.25 2.08 2.02 2.05 1.98 2.05 1.82 1.72 1.89 2.04 2.01 1.85 2.15 2.37 2.35 2.36
0.04 0.06 0.10 0.15 0.16 0.16 0.33 0.54 0.66 0.83 0.98 1.10 1.10 1.21 1.27 1.40 1.86 2.36 2.64 2.88 3.41 3.93 4.46 4.48 4.41 4.65 4.41 4.03 3.71 3.37 3.03 2.77 2.53 2.34 2.12 1.88 1.76 1.80 2.00 1.73 1.73 1.95 2.03 1.96 2.03 2.21 2.36 2.24 2.30
0.05 0.09 0.16 0.18 0.16 0.29 0.48 0.63 0.73 0.85 0.91 1.02 1.15 1.13 1.15 1.43 1.84 2.25 2.55 2.86 3.24 3.82 4.26 4.59 4.62 4.54 4.38 4.09 3.63 3.18 2.77 2.61 2.39 2.17 1.97 1.85 1.80 1.89 2.15 1.88 1.91 1.92 1.86 1.84 2.03 2.15 2.06 1.93 2.33
0.07 0.13 0.21 0.25 0.19 0.28 0.48 0.71 0.85 0.87 0.86 0.94 1.11 1.30 1.33 1.55 1.80 2.18 2.57 2.82 2.93 3.18 3.57 3.88 3.95 3.61 3.24 3.06 2.95 2.78 2.68 2.39 2.21 2.18 2.16 1.99 1.95 1.92 1.94 1.97 1.87 1.86 1.83 1.67 1.76 1.98 1.86 1.55 1.96
0.10 0.11 0.12 0.17 0.19 0.31 0.51 0.86 0.97 0.82 0.78 0.87 1.00 1.29 1.50 1.52 1.69 1.97 2.37 2.54 2.60 2.69 2.82 2.89 2.87 2.75 2.67 2.70 2.76 2.80 2.84 2.58 2.46 2.40 2.36 2.13 2.05 1.99 2.02 1.87 1.70 1.66 1.61 1.49 1.49 1.66 1.72 1.53 1.55
0.13 0.08 0.06 0.09 0.21 0.47 0.59 1.02 1.10 0.90 0.87 0.92 0.97 1.07 1.18 1.29 1.33 1.43 1.69 2.04 1.99 2.05 2.27 2.57 2.61 2.56 2.65 2.86 2.88 2.81 2.71 2.67 2.69 2.78 2.75 2.61 2.38 2.17 2.00 1.78 1.57 1.41 1.33 1.30 1.21 1.38 1.48 1.51 1.28
0.07 0.05 0.06 0.09 0.19 0.39 0.49 0.76 1.01 1.04 0.95 0.87 0.86 0.93 0.94 1.01 1.05 1.05 1.20 1.61 1.74 1.69 1.90 2.23 2.57 2.69 2.85 3.05 3.09 3.13 3.03 2.93 2.82 2.80 2.70 2.51 2.35 2.14 1.88 1.69 1.53 1.40 1.28 1.20 1.16 1.22 1.21 1.23 1.13
0.05 0.07 0.15 0.22 0.40 0.76 0.61 0.64 1.04 1.04 0.87 0.76 0.65 0.67 0.70 0.71 0.74 0.81 0.96 1.40 1.77 1.83 1.91 2.02 2.29 2.59 2.81 2.90 2.91 2.88 2.77 2.67 2.50 2.36 2.11 1.90 1.80 1.69 1.57 1.45 1.31 1.22 1.20 1.21 1.15 1.12 1.10 1.10 1.10
0.06 0.16 0.52 0.83 1.11 1.15 0.61 0.63 0.94 0.78 0.72 0.65 0.68 0.69 0.53 0.47 0.55 0.59 0.63 0.76 0.93 1.12 1.27 1.38 1.55 1.84 2.08 2.24 2.24 2.14 2.17 2.08 1.86 1.67 1.52 1.31 1.16 1.04 0.99 1.02 1.02 0.99 0.95 0.95 0.97 0.92 0.92 0.99 1.05
0.07 0.10 0.32 0.53 0.68 0.82 0.75 1.03 1.00 0.67 0.55 0.55 0.58 0.50 0.36 0.32 0.33 0.35 0.37 0.40 0.57 0.78 1.01 1.13 1.20 1.29 1.46 1.55 1.53 1.49 1.53 1.50 1.34 1.32 1.17 1.01 0.89 0.80 0.82 0.84 0.84 0.81 0.81 0.81 0.85 0.80 0.78 0.79 0.84
0.06 0.06 0.09 0.16 0.26 0.53 0.82 1.17 1.06 0.68 0.58 0.54 0.40 0.29 0.23 0.18 0.17 0.18 0.21 0.26 0.35 0.55 0.74 0.83 0.95 1.05 1.18 1.31 1.22 1.11 1.05 1.05 1.03 1.02 0.98 0.92 0.92 0.83 0.87 0.86 0.86 0.84 0.83 0.84 0.82 0.77 0.76 0.85 0.88
0.07 0.07 0.08 0.12 0.26 0.46 0.73 1.07 1.16 0.81 0.73 0.56 0.42 0.36 0.23 0.14 0.12 0.12 0.15 0.19 0.22 0.30 0.47 0.64 0.78 0.92 1.02 1.12 1.05 0.91 0.88 0.85 0.84 0.86 0.87 0.86 0.86 0.89 0.91 0.88 0.88 0.87 0.86 0.82 0.77 0.73 0.74 0.84 0.93
0.10 0.09 0.09 0.10 0.13 0.30 0.58 0.78 0.73 0.62 0.50 0.42 0.39 0.31 0.18 0.16 0.13 0.12 0.18 0.23 0.29 0.38 0.52 0.64 0.75 0.82 0.91 0.93 0.89 0.84 0.80 0.81 0.83 0.81 0.80 0.81 0.85 0.89 0.90 0.89 0.86 0.82 0.81 0.81 0.81 0.78 0.85 0.91 0.93
0.11 0.10 0.12 0.15 0.13 0.16 0.30 0.51 0.38 0.31 0.31 0.32 0.28 0.27 0.19 0.20 0.20 0.21 0.25 0.31 0.38 0.45 0.55 0.66 0.76 0.81 0.91 0.99 1.07 1.12 1.12 1.10 1.04 0.90 0.84 0.87 0.92 0.96 0.98 0.95 0.92 0.84 0.85 0.95 0.98 0.97 1.03 1.05 1.01